XML Sitemap

This is a XML Sitemap which is supposed to be processed by search engines which follow the XML Sitemap standard like Ask.com, Bing, Google and Yahoo.
It was generated using the WordPress content management system and the Google Sitemap Generator Plugin by Arne Brachhold.
You can find more information about XML sitemaps on sitemaps.org and Google's list of sitemap programs.

URLPriorityChange frequencyLast modified (GMT)
https://www.mactech.com/1997/03/31/md1-keeping-track-of-sw-versions/20%Monthly1997-03-31 17:47
https://www.mactech.com/1997/03/31/md1-stonetable-and-toolsplus-compatibility/20%Monthly1997-03-31 17:46
https://www.mactech.com/1997/03/31/md1-essential-software-for-the-beos/20%Monthly1997-03-31 17:45
https://www.mactech.com/1997/03/31/md1-roaster-technologies-release-3-is-shipping/20%Monthly1997-03-31 17:45
https://www.mactech.com/1997/03/31/md1-visual-basic-to-java-conversion-tool/20%Monthly1997-03-31 17:44
https://www.mactech.com/1997/03/27/md1-4d-version-6/20%Monthly1997-03-27 16:47
https://www.mactech.com/1997/03/27/md1-web-fm-3-0/20%Monthly1997-03-27 16:31
https://www.mactech.com/1997/03/27/md1-free-chain-gang-beta/20%Monthly1997-03-27 16:30
https://www.mactech.com/1997/03/27/md1-metrowerks-standard-lib-2-1-1-update/20%Monthly1997-03-27 16:29
https://www.mactech.com/1997/03/27/md1-depot-easter-holiday-sale/20%Monthly1997-03-27 06:04
https://www.mactech.com/1997/03/27/md1-apple-briefing-in-nice-france/20%Monthly1997-03-27 02:15
https://www.mactech.com/1997/03/27/md1-quickdns-pro-1-1-1/20%Monthly1997-03-27 02:15
https://www.mactech.com/1997/03/27/md1-grayscale-kitchen-2-0/20%Monthly1997-03-27 02:14
https://www.mactech.com/1997/03/27/md1-apple-ships-messagepad-2000/20%Monthly1997-03-27 02:13
https://www.mactech.com/1997/03/25/md1-symantec-cafe-1-5-for-mac/20%Monthly1997-03-25 17:37
https://www.mactech.com/1997/03/25/md1-apple-invite-to-javaone/20%Monthly1997-03-25 17:37
https://www.mactech.com/1997/03/23/md1-cameraman-version-3-0/20%Monthly1997-03-23 17:49
https://www.mactech.com/1997/03/23/md1-status-on-game-sprockets/20%Monthly1997-03-23 17:49
https://www.mactech.com/1997/03/20/md1-pilot-emulator-for-power-mac/20%Monthly1997-03-20 20:03
https://www.mactech.com/1997/03/20/md1-updaters-for-codewarrior-compiler-linkers/20%Monthly1997-03-20 20:03
https://www.mactech.com/1997/03/18/md1-umax-for-high-end/20%Monthly1997-03-18 21:14
https://www.mactech.com/1997/03/17/md1-handheld-systems-conference-final-agenda/20%Monthly1997-03-17 19:21
https://www.mactech.com/1997/03/17/md1-royals-awards/20%Monthly1997-03-17 19:21
https://www.mactech.com/1997/03/17/md1-the-a-list-a-list-manager-replacement/20%Monthly1997-03-17 19:21
https://www.mactech.com/1997/03/17/md1-deepcover-for-java/20%Monthly1997-03-17 19:20
https://www.mactech.com/1997/03/17/md1-maczoop-1-6/20%Monthly1997-03-17 19:20
https://www.mactech.com/1997/03/17/md1-soundmaker-1-2/20%Monthly1997-03-17 19:20
https://www.mactech.com/1997/03/15/md1-to-developers-on-the-apple-restructuring/20%Monthly1997-03-15 00:23
https://www.mactech.com/1997/03/15/md1-be-dev-conf-other-events/20%Monthly1997-03-15 00:14
https://www.mactech.com/1997/03/15/md1-beos-masters-awards-program/20%Monthly1997-03-15 00:14
https://www.mactech.com/1997/03/15/md1-beos-porting-lab-and-bugs-online/20%Monthly1997-03-15 00:14
https://www.mactech.com/1997/03/14/md1-apple-details-restructuring-plans/20%Monthly1997-03-14 23:52
https://www.mactech.com/1997/03/14/md1-beos-dr8-3-update/20%Monthly1997-03-14 20:40
https://www.mactech.com/1997/03/13/md1-macad-6-0/20%Monthly1997-03-13 20:46
https://www.mactech.com/1997/03/13/md1-raven-1-0-on-info-mac/20%Monthly1997-03-13 20:46
https://www.mactech.com/1997/03/13/md1-siteedit-pro-version-2-0/20%Monthly1997-03-13 20:46
https://www.mactech.com/1997/03/13/md1-stuffit-engine-sdk-4-0/20%Monthly1997-03-13 20:46
https://www.mactech.com/1997/03/13/md1-webcommerce-solution/20%Monthly1997-03-13 20:46
https://www.mactech.com/1997/03/13/md1-worlds-largest-software-catalog/20%Monthly1997-03-13 20:46
https://www.mactech.com/1997/03/12/md1-homedoor-2-0/20%Monthly1997-03-12 08:00
https://www.mactech.com/1997/03/10/md1-metrowerks-acquisition-of-lattitude/20%Monthly1997-03-10 08:01
https://www.mactech.com/1997/03/10/md1-tools-for-powerpc-embedded-microprocessors/20%Monthly1997-03-10 08:01
https://www.mactech.com/1997/03/10/md1-castanet-tuner-for-mac-java-available/20%Monthly1997-03-10 06:38
https://www.mactech.com/1997/03/10/md1-krathwohl-to-fill-roizens-shoes/20%Monthly1997-03-10 06:37
https://www.mactech.com/1997/03/07/md1-liveaccess/20%Monthly1997-03-07 19:15
https://www.mactech.com/1997/03/07/md1-ls-fortran-plug-in-for-codewarrior/20%Monthly1997-03-07 19:15
https://www.mactech.com/1997/03/07/md1-roaster-licenses-obj-designs-pse/20%Monthly1997-03-07 19:15
https://www.mactech.com/1997/03/07/md1-tempo-will-be-macos-8/20%Monthly1997-03-07 19:15
https://www.mactech.com/1997/03/07/md1-scriptagent/20%Monthly1997-03-07 19:15
https://www.mactech.com/1997/03/05/md1-neoaccess-5-0/20%Monthly1997-03-05 20:42
https://www.mactech.com/1997/03/05/md1-pagesentry-2-1/20%Monthly1997-03-05 20:42
https://www.mactech.com/1997/03/05/md1-phantom-2-0-2/20%Monthly1997-03-05 20:42
https://www.mactech.com/1997/03/05/md1-prefabs-player-1-1/20%Monthly1997-03-05 20:42
https://www.mactech.com/1997/03/05/md1-quicktime-vr-2-0-macintosh-is-gm/20%Monthly1997-03-05 20:42
https://www.mactech.com/1997/03/05/md1-roaster-and-pure-java-jdbc-drivers/20%Monthly1997-03-05 20:42
https://www.mactech.com/1997/03/03/md1-quickdraw-gx-printing-to-be-removed/20%Monthly1997-03-03 07:23
https://www.mactech.com/1997/03/03/md1-multi-port-serial-pci-cards/20%Monthly1997-03-03 04:12
https://www.mactech.com/1997/03/03/md1-smalleiffel-cw-1-0b2-available/20%Monthly1997-03-03 04:12
https://www.mactech.com/1997/03/03/md1-the-mac-channel/20%Monthly1997-03-03 04:12